Morrisville, VT

3:44 AM EDT on September 18, 2019 (GMT -0400)
Morrisville Stowe State

Weather History for KMVL - August, 2019

Change the Weather History Date:

Wednesday, August 21, 2019

  Actual Average Record
Temperature  
Mean Temperature 62 °F 65 °F  
Max Temperature 73 °F 77 °F 85 °F (2013)
Min Temperature 52 °F 53 °F 39 °F (2007)
Degree Days  
Heating Degree Days 2 2  
Month to date heating degree days 22 37  
Since 1 June heating degree days 175 190  
Since 1 July heating degree days 32 67  
Cooling Degree Days 0 2  
Month to date cooling degree days 55 58  
Year to date cooling degree days 237 226  
Since 1 June cooling degree days 236 218  
Growing Degree Days 12 (Base 50)    
Moisture  
Dew Point 62 °F    
Average Humidity 92    
Maximum Humidity 100    
Minimum Humidity 68    
Precipitation  
Precipitation 0.44 in 0.13 in 0.83 in (1996)
Month to date precipitation 3.05 2.91  
Year to date precipitation 26.49 22.64  
Sea Level Pressure  
Sea Level Pressure 29.89 in    
Wind  
Wind Speed 1 mph ()    
Max Wind Speed 8 mph    
Max Gust Speed 11 mph    
Visibility 6.4 miles    
Events Rain    
T = Trace of Precipitation, MM = Missing Value Source: Averaged Metar Reports

Daily Weather History Graph

Daily Weather History Graph

Search for Another Location

Airport or City:

Astronomy

Aug. 21, 2019 Rise Set
Actual Time 5:59 AM EDT 7:46 PM EDT
Civil Twilight 5:28 AM EDT 8:17 PM EDT
Nautical Twilight 4:50 AM EDT 8:55 PM EDT
Astronomical Twilight 4:09 AM EDT 9:35 PM EDT
Moon 10:48 PM EDT (8/21) 11:45 AM EDT (8/21)
Length of Visible Light 14h 48m
Length of Day
13h 46m
Waning Gibbous, 69% of the Moon is Illuminated
Aug 21
Waning Gibbous
Aug 23
Last Quarter
Aug 30
New
Sep 5
First Quarter
Sep 14
Full

Hourly Weather History & Observations

Time (EDT) Temp. Dew Point Humidity Pressure Visibility Wind Dir Wind Speed Gust Speed Precip Events Conditions
12:54 AM 55.9 °F 55.0 °F 97% 30.04 in 10.0 mi Calm Calm - N/A   Clear
1:54 AM 54.0 °F 53.1 °F 97% 30.01 in 10.0 mi Calm Calm - N/A   Clear
2:54 AM 54.0 °F 52.0 °F 93% 30.01 in 10.0 mi Calm Calm - N/A   Clear
3:54 AM 53.1 °F 52.0 °F 96% 30.00 in 10.0 mi Calm Calm - N/A   Clear
4:54 AM 53.1 °F 51.1 °F 93% 29.99 in 10.0 mi NNE 4.6 mph - N/A   Clear
5:54 AM 54.0 °F 52.0 °F 93% 29.97 in 10.0 mi Calm Calm - N/A   Clear
6:54 AM 54.0 °F 53.1 °F 97% 29.98 in 10.0 mi Calm Calm - N/A   Clear
7:54 AM 57.0 °F 55.0 °F 93% 29.97 in 10.0 mi Calm Calm - N/A   Clear
8:54 AM 62.1 °F 57.9 °F 86% 29.95 in 10.0 mi South 3.5 mph - N/A   Partly Cloudy
9:54 AM 71.1 °F 62.1 °F 73% 29.93 in 10.0 mi SSE 5.8 mph - N/A   Clear
10:54 AM 73.0 °F 63.0 °F 71% 29.91 in 10.0 mi South 4.6 mph - N/A   Partly Cloudy
11:54 AM 71.1 °F 64.0 °F 78% 29.93 in 10.0 mi Variable 3.5 mph - N/A   Overcast
12:54 PM 72.0 °F 64.0 °F 76% 29.91 in 10.0 mi Calm Calm - 0.00 in   Overcast
1:54 PM 72.0 °F 66.0 °F 81% 29.89 in 10.0 mi Calm Calm - 0.00 in Rain Light Rain
2:54 PM 71.1 °F 66.9 °F 87% 29.89 in 10.0 mi Calm Calm - 0.01 in Rain Light Rain
3:54 PM 70.0 °F 66.0 °F 87% 29.89 in 10.0 mi Calm Calm - 0.01 in Rain Light Rain
4:44 PM 69.1 °F 66.9 °F 93% 29.87 in 2.5 mi ESE 4.6 mph - 0.13 in Rain Heavy Rain
4:54 PM 69.1 °F 66.9 °F 93% 29.88 in 1.8 mi Calm Calm - 0.22 in Rain Heavy Rain
5:03 PM 69.1 °F 66.9 °F 93% 29.87 in 2.5 mi East 4.6 mph - 0.04 in Rain Rain
5:10 PM 69.1 °F 66.9 °F 93% 29.87 in 4.0 mi East 3.5 mph - 0.07 in Rain Rain
5:20 PM 68.0 °F 64.9 °F 90% 29.86 in 2.5 mi Calm Calm - 0.13 in Rain Rain
5:31 PM 68.0 °F 64.0 °F 87% 29.86 in 4.0 mi Calm Calm - 0.16 in Rain Light Rain
5:54 PM 68.0 °F 64.0 °F 87% 29.86 in 7.0 mi Calm Calm - 0.18 in Rain Light Rain
6:41 PM 66.9 °F 64.9 °F 93% 29.85 in 10.0 mi South 3.5 mph - 0.02 in   Overcast
6:54 PM 66.9 °F 64.9 °F 93% 29.85 in 10.0 mi Calm Calm - 0.02 in   Overcast
7:18 PM 66.9 °F 64.9 °F 93% 29.84 in 10.0 mi Calm Calm - N/A   Scattered Clouds
7:42 PM 64.9 °F 64.0 °F 97% 29.84 in 1.8 mi Calm Calm - N/A   Clear
7:54 PM 64.9 °F 64.0 °F 97% 29.84 in 4.0 mi Calm Calm - N/A   Scattered Clouds
8:07 PM 64.9 °F 64.0 °F 97% 29.84 in 1.8 mi Calm Calm - N/A   Mostly Cloudy
8:12 PM 64.9 °F 64.0 °F 97% 29.84 in 2.0 mi South 3.5 mph - N/A   Mostly Cloudy
8:23 PM 64.9 °F 64.0 °F 97% 29.84 in 1.0 mi SSE 3.5 mph - N/A   Overcast
8:28 PM 64.9 °F 64.0 °F 97% 29.84 in 1.2 mi South 3.5 mph - N/A   Overcast
8:32 PM 64.9 °F 64.0 °F 97% 29.83 in 3.0 mi South 3.5 mph - N/A   Overcast
8:54 PM 64.9 °F 64.0 °F 97% 29.84 in 5.0 mi Calm Calm - N/A   Mostly Cloudy
9:54 PM 64.9 °F 64.9 °F 100% 29.83 in 8.0 mi South 3.5 mph - N/A   Overcast
10:54 PM 64.9 °F 64.0 °F 97% 29.83 in 5.0 mi SSW 5.8 mph - N/A   Overcast
11:10 PM 64.9 °F 64.0 °F 97% 29.83 in 1.8 mi South 5.8 mph - N/A   Overcast
11:34 PM 64.9 °F 64.0 °F 97% 29.81 in 0.8 mi South 4.6 mph - N/A   Mist
11:54 PM 64.9 °F 64.0 °F 97% 29.81 in 0.8 mi South 3.5 mph - N/A   Mist